This demonstration page uses our WeatherBlox Daily Observations layout. Learn more.

Left ArrowRight Arrow

39.51506, -84.39828

Hourly Observations for June 18, 2016

Temp ( °F °C ) Dew Point ( °F °C ) Humidity (%) Winds ( mph kmh ) Pressure ( in mb ) Visibility ( mi km ) Precip ( " mm )
12:15 am 00:15 Clear 70 20.9 47 8.2 44 44 NNE 3 6 30.06 1018 10 16 N/A
12:35 am 00:35 Clear 69 20.8 48 8.9 47 47 N 7 11 30.06 1018 10 16 N/A
12:55 am 00:55 Clear 69 20.8 46 7.5 42 42 NNE 6 9 30.06 1018 10 16 N/A
1:15 am 01:15 Clear 69 20.8 47 8.4 45 45 N 3 6 30.06 1018 10 16 N/A
1:35 am 01:35 Clear 69 20.8 48 9 47 47 N 3 6 30.06 1018 10 16 N/A
1:55 am 01:55 Clear 68 20.1 49 9.7 51 51 N 3 6 30.06 1018 10 16 N/A
2:15 am 02:15 Clear 67 19.5 49 9.2 52 52 N 6 9 30.06 1018 10 16 N/A
2:35 am 02:35 Clear 64 18 49 9.3 57 57 N 5 7 30.06 1018 10 16 N/A
2:55 am 02:55 Clear 64 17.5 48 9.1 58 58 N 5 7 30.09 1019 10 16 N/A
3:15 am 03:15 Clear 64 18 48 8.7 55 55 N 5 7 30.09 1019 10 16 N/A
3:35 am 03:35 Clear 64 18 47 8.1 53 53 N 3 6 30.09 1019 10 16 N/A
3:55 am 03:55 Clear 64 17.8 49 9.2 57 57 N N/A 30.09 1019 10 16 N/A
4:15 am 04:15 Clear 61 16.1 48 9.1 63 63 N 5 7 30.12 1020 10 16 N/A
4:35 am 04:35 Clear 61 15.9 49 9.2 65 65 N 5 7 30.12 1020 10 16 N/A
4:55 am 04:55 Clear 60 15.3 50 10 71 71 N N/A 30.12 1020 10 16 N/A
5:15 am 05:15 Clear 62 16.6 49 9.5 63 63 N 3 6 30.15 1021 10 16 N/A
5:35 am 05:35 Clear 62 16.6 49 9.5 63 63 NNE 3 6 30.15 1021 10 16 N/A
5:55 am 05:55 Clear 61 15.9 50 9.9 68 68 N N/A 30.15 1021 10 16 N/A
6:15 am 06:15 Sunny 61 16 49 9.5 66 66 N N/A 30.15 1021 10 16 N/A
6:35 am 06:35 Sunny 60 15.5 50 9.8 69 69 N N/A 30.15 1021 10 16 N/A
6:55 am 06:55 Sunny 62 16.8 50 10 64 64 N N/A 30.12 1020 10 16 N/A
7:15 am 07:15 Sunny 64 17.8 54 12 69 69 N N/A 30.12 1020 10 16 N/A
7:35 am 07:35 Sunny 67 19.7 54 12.3 63 63 N N/A 30.15 1021 10 16 N/A
7:55 am 07:55 Sunny 69 20.8 55 12.5 59 59 N 3 6 30.15 1021 10 16 N/A
8:15 am 08:15 Sunny 69 20.8 54 12.1 58 58 NNE 6 9 30.18 1022 10 16 N/A
8:35 am 08:35 Sunny 74 23.3 58 14.3 57 57 NNE 5 7 30.18 1022 10 16 N/A
8:55 am 08:55 Sunny 74 23.6 57 14.1 55 55 NNE 7 11 30.18 1022 10 16 N/A
9:15 am 09:15 Sunny 76 24.2 54 12 47 47 N N/A 30.18 1022 10 16 N/A
9:35 am 09:35 Sunny 77 25.1 52 11.3 42 42 ENE 7 11 30.18 1022 10 16 N/A
9:55 am 09:55 Sunny 77 25.1 51 10.8 41 41 E 6 9 30.21 1023 10 16 N/A
10:15 am 10:15 Sunny 79 26.3 51 10.3 37 37 E 6 9 30.21 1023 10 16 N/A
10:35 am 10:35 Sunny 80 26.5 50 9.9 35 35 E 9 15 30.21 1023 10 16 N/A
10:55 am 10:55 Sunny 80 26.5 50 10 35 35 ENE 8 13 30.21 1023 10 16 N/A
11:15 am 11:15 Sunny 81 27.2 48 9 32 32 E 5 7 30.21 1023 10 16 N/A
11:35 am 11:35 Sunny 81 27.4 48 8.7 31 31 NE 10 17 30.21 1023 10 16 N/A
11:55 am 11:55 Sunny 82 28 47 8.3 29 29 ENE 9 15 30.21 1023 10 16 N/A
12:15 pm 12:15 Sunny 83 28.2 45 7 26 26 E 7 11 30.21 1023 10 16 N/A
12:35 pm 12:35 Sunny 83 28.6 42 5.5 23 23 E 10 17 30.21 1023 10 16 N/A
12:55 pm 12:55 Sunny 84 29.1 41 4.9 21 21 ENE 13 20 30.21 1023 10 16 N/A
1:15 pm 13:15 Sunny 84 29.1 37 3 19 19 ESE 8 13 30.21 1023 10 16 N/A
1:35 pm 13:35 Sunny 87 30.7 37 2.5 16 16 E 16 26 30.18 1022 10 16 N/A
1:55 pm 13:55 Sunny 90 32.1 38 3.6 16 16 ESE 13 20 30.18 1022 10 16 N/A
2:15 pm 14:15 Sunny 89 31.5 37 2.6 16 16 ESE 12 19 30.18 1022 10 16 N/A
2:35 pm 14:35 Sunny 90 32.1 38 3.1 16 16 ESE 12 19 30.18 1022 10 16 N/A
2:55 pm 14:55 Sunny 90 32.1 38 3.6 16 16 ESE 12 19 30.18 1022 10 16 N/A
3:15 pm 15:15 Sunny 90 32.1 37 2.8 15 15 E 10 17 30.18 1022 10 16 N/A
3:35 pm 15:35 Sunny 90 32.1 36 2 15 15 ESE 8 13 30.18 1022 10 16 N/A
3:55 pm 15:55 Sunny 90 32.1 37 2.9 16 16 SSE 12 19 30.18 1022 10 16 N/A
4:15 pm 16:15 Sunny 90 32.1 37 2.6 15 15 SE 10 17 30.18 1022 10 16 N/A
4:35 pm 16:35 Sunny 90 32.1 36 2.4 15 15 SE 5 7 30.18 1022 10 16 N/A
4:55 pm 16:55 Sunny 90 32.1 38 3.1 16 16 E 8 13 30.15 1021 10 16 N/A
5:15 pm 17:15 Sunny 90 32.1 37 2.8 15 15 E 8 13 30.15 1021 10 16 N/A
5:35 pm 17:35 Sunny 90 32.1 39 4.1 17 17 SSE 9 15 30.15 1021 10 16 N/A
5:55 pm 17:55 Sunny 90 32.1 39 3.8 17 17 E 10 17 30.15 1021 10 16 N/A
6:15 pm 18:15 Sunny 90 32.1 43 6 19 19 SSE 9 15 30.15 1021 10 16 N/A
6:35 pm 18:35 Sunny 89 31.6 38 3.6 17 17 E 9 15 30.15 1021 10 16 N/A
6:55 pm 18:55 Sunny 89 31.6 39 3.8 17 17 ESE 9 15 30.15 1021 10 16 N/A
7:15 pm 19:15 Sunny 86 30.2 39 3.8 19 19 E 6 9 30.15 1021 10 16 N/A
7:35 pm 19:35 Sunny 85 29.2 38 3.5 19 19 E 9 15 30.18 1022 10 16 N/A
7:55 pm 19:55 Sunny 83 28.6 40 4.3 21 21 SE 7 11 30.21 1023 10 16 N/A
8:15 pm 20:15 Sunny 82 28 39 4 21 21 ESE 6 9 30.21 1023 10 16 N/A
8:35 pm 20:35 Sunny 82 28 40 4.3 22 22 SE 6 9 30.21 1023 10 16 N/A
8:55 pm 20:55 Sunny 81 27.2 41 5.2 25 25 SE 5 7 30.21 1023 10 16 N/A
9:15 pm 21:15 Clear 80 26.5 44 6.4 28 28 ESE 3 6 30.21 1023 10 16 N/A
9:35 pm 21:35 Clear 79 25.9 46 7.8 32 32 E 3 6 30.21 1023 10 16 N/A
9:55 pm 21:55 Clear 72 22.2 57 13.9 59 59 N N/A 30.21 1023 10 16 N/A
10:15 pm 22:15 Clear 69 20.8 57 13.8 64 64 N N/A 30.24 1024 10 16 N/A
10:35 pm 22:35 Clear 69 20.8 58 14.3 66 66 N N/A 30.24 1024 10 16 N/A
10:55 pm 22:55 Clear 69 20.8 58 14.5 67 67 N N/A 30.24 1024 10 16 N/A
11:15 pm 23:15 Clear 69 20.5 58 14.5 69 69 N N/A 30.24 1024 10 16 N/A
11:35 pm 23:35 Clear 67 19.5 57 13.8 70 70 N N/A 30.24 1024 10 16 N/A
11:55 pm 23:55 Clear 64 18 55 13 73 73 N N/A 30.24 1024 10 16 N/A

Powered by AerisWeather